Location: Makakahi
(40.6833°S, 175.6000°E)
Time: 19:56:42
(UTC+00:00)

FENGYUN 1C DEB - Pass Details

Date: 14 February 2026
Orbit: 839 x 906 km, 98.9° (Epoch: 9 March)

Event Time Altitude Azimuth Distance (km) Brightness Sun altitude
Rises 10:35:24 0° 182° (S) 3,447 ? -30.0°
Reaches altitude 10° 10:38:29 10° 200° (SSW) 2,513 ? -30.3°
Maximum altitude 10:42:08 18° 241° (WSW) 1,995 ? -30.7°
Drops below altitude 10° 10:45:47 10° 282° (WNW) 2,521 ? -31.0°
Sets 10:48:54 0° 300° (WNW) 3,463 ? -31.3°
